Location: Biltmore Gardens
(41.6070°N, 83.4666°W)
Time: 14:17:48
(UTC+00:00)

Meteor 1-20 Rocket - Pass Details

Date: 14 July 2020
Orbit: 820 x 891 km, 81.2° (Epoch: 04 August)

Event Time Altitude Azimuth Distance (km) Brightness Sun altitude
Exits shadow 06:04:43 54° 113° (ESE) 1,024 4.4 -26.5°
Maximum altitude 06:05:09 55° 94° (E) 1,009 4.5 -26.5°
Drops below altitude 10° 06:10:40 10° 18° (NNE) 2,502 7.6 -26.4°
Sets 06:13:10 0° 15° (NNE) 3,454 8.7 -26.3°
